TimeAEST,TemperatureF,Dew PointF,Humidity,Sea Level PressureIn,VisibilityMPH,Wind Direction,Wind SpeedMPH,Gust SpeedMPH,PrecipitationIn,Events,Conditions,WindDirDegrees,DateUTC
12:00 AM,74,71,86,29.88,,NNW,3.5,,,,,340,2013-03-16 14:00:00
12:00 AM,73.4,71.6,94,29.89,6.2,NNW,3.5,-,N/A,,Partly Cloudy,340,2013-03-16 14:00:00
12:30 AM,73.4,69.8,88,29.86,6.2,West,4.6,-,N/A,,Partly Cloudy,280,2013-03-16 14:30:00
1:00 AM,73,71,89,29.88,,SSW,1.2,,,,,210,2013-03-16 15:00:00
1:00 AM,73.4,69.8,88,29.86,6.2,SSW,1.2,-,N/A,,Partly Cloudy,210,2013-03-16 15:00:00
1:30 AM,71.6,69.8,94,29.86,6.2,WSW,3.5,-,N/A,,Partly Cloudy,240,2013-03-16 15:30:00
2:00 AM,71.6,69.8,94,29.86,-9999.0,SSW,1.2,-,N/A,,Clear,200,2013-03-16 16:00:00
2:30 AM,73.4,68.0,83,29.83,-9999.0,SSE,6.9,-,N/A,,Clear,150,2013-03-16 16:30:00
3:00 AM,73,68,80,29.85,,SSE,6.9,,,,,160,2013-03-16 17:00:00
3:00 AM,73.4,68.0,83,29.83,-9999.0,SSE,6.9,-,N/A,,Clear,160,2013-03-16 17:00:00
3:30 AM,71.6,68.0,88,29.83,-9999.0,South,5.8,-,N/A,,Clear,170,2013-03-16 17:30:00
4:00 AM,71,69,90,29.85,,Calm,Calm,,,,,,2013-03-16 18:00:00
4:00 AM,71.6,68.0,88,29.83,6.2,Calm,Calm,-,N/A,,Unknown,0,2013-03-16 18:00:00
4:30 AM,69.8,68.0,94,29.83,-9999.0,Calm,Calm,-,N/A,,Clear,0,2013-03-16 18:30:00
5:00 AM,69.8,68.0,94,29.83,-9999.0,Calm,Calm,-,N/A,,Clear,0,2013-03-16 19:00:00
5:30 AM,69.8,68.0,94,29.83,-9999.0,Calm,Calm,-,N/A,,Clear,0,2013-03-16 19:30:00
6:00 AM,69,67,93,29.85,19,Calm,Calm,,,,Partly Cloudy,,2013-03-16 20:00:00
6:00 AM,68.0,68.0,100,29.83,-9999.0,Calm,Calm,-,N/A,,Clear,0,2013-03-16 20:00:00
6:30 AM,68.0,68.0,100,29.86,-9999.0,Calm,Calm,-,N/A,,Clear,0,2013-03-16 20:30:00
7:00 AM,70,68,90,29.87,,WSW,1.2,,,,,250,2013-03-16 21:00:00
7:00 AM,69.8,68.0,94,29.86,-9999.0,WSW,1.2,-,N/A,,Clear,250,2013-03-16 21:00:00
7:30 AM,75.2,68.0,78,29.86,-9999.0,West,1.2,-,N/A,,Clear,280,2013-03-16 21:30:00
8:00 AM,75.2,68.0,78,29.86,-9999.0,WNW,5.8,-,N/A,,Clear,290,2013-03-16 22:00:00
8:30 AM,77.0,69.8,78,29.86,-9999.0,WNW,5.8,-,N/A,,Clear,290,2013-03-16 22:30:00
9:00 AM,79,69,63,29.88,19,SSE,2.3,,,,Partly Cloudy,150,2013-03-16 23:00:00
9:00 AM,78.8,68.0,69,29.86,-9999.0,SSE,2.3,-,N/A,,Clear,150,2013-03-16 23:00:00
9:30 AM,80.6,69.8,70,29.86,-9999.0,NW,3.5,-,N/A,,Clear,310,2013-03-16 23:30:00
10:00 AM,83,68,51,29.88,,ENE,3.5,,,,,70,2013-03-17 00:00:00
10:00 AM,82.4,68.0,62,29.86,6.2,ENE,3.5,-,N/A,,Scattered Clouds,70,2013-03-17 00:00:00
10:30 AM,84.2,69.8,62,29.86,6.2,NE,4.6,-,N/A,,Scattered Clouds,50,2013-03-17 00:30:00
11:00 AM,84.2,66.2,55,29.86,6.2,NE,6.9,-,N/A,,Mostly Cloudy,50,2013-03-17 01:00:00
11:30 AM,84.2,66.2,55,29.86,6.2,NE,8.1,-,N/A,,Scattered Clouds,50,2013-03-17 01:30:00
12:00 PM,85,68,47,29.85,19,North,8.1,,,,Partly Cloudy,10,2013-03-17 02:00:00
12:00 PM,84.2,68.0,58,29.83,6.2,North,8.1,-,N/A,,Scattered Clouds,10,2013-03-17 02:00:00
12:30 PM,86.0,69.8,58,29.83,6.2,NNE,9.2,-,N/A,,Scattered Clouds,30,2013-03-17 02:30:00
1:00 PM,85,71,53,29.83,,NNE,10.4,,,,,20,2013-03-17 03:00:00
1:00 PM,86.0,69.8,58,29.80,6.2,NNE,10.4,-,N/A,,Mostly Cloudy,20,2013-03-17 03:00:00
1:30 PM,84.2,71.6,66,29.80,-9999.0,NNE,10.4,-,N/A,,Clear,20,2013-03-17 03:30:00
2:00 PM,84.2,69.8,62,29.80,-9999.0,NNE,9.2,-,N/A,,Clear,30,2013-03-17 04:00:00
2:30 PM,86.0,71.6,62,29.77,-9999.0,NNE,8.1,-,N/A,,Clear,30,2013-03-17 04:30:00
3:00 PM,85,70,52,29.78,19,North,8.1,,,,Partly Cloudy,10,2013-03-17 05:00:00
3:00 PM,84.2,69.8,62,29.77,6.2,North,8.1,-,N/A,,Mostly Cloudy,10,2013-03-17 05:00:00
3:30 PM,86.0,71.6,62,29.77,6.2,NNE,6.9,-,N/A,,Mostly Cloudy,20,2013-03-17 05:30:00
4:00 PM,85,72,57,29.78,,North,8.1,,,,,10,2013-03-17 06:00:00
4:00 PM,84.2,71.6,66,29.77,6.2,North,8.1,-,N/A,,Mostly Cloudy,10,2013-03-17 06:00:00
4:30 PM,86.0,71.6,62,29.77,6.2,North,8.1,-,N/A,,Mostly Cloudy,10,2013-03-17 06:30:00
5:00 PM,84.2,71.6,66,29.77,6.2,North,8.1,-,N/A,,Mostly Cloudy,10,2013-03-17 07:00:00
5:30 PM,84.2,71.6,66,29.77,6.2,NNW,6.9,-,N/A,,Mostly Cloudy,340,2013-03-17 07:30:00
6:00 PM,83,72,61,29.78,19,WNW,8.1,,,,Partly Cloudy,290,2013-03-17 08:00:00
6:00 PM,82.4,71.6,70,29.77,6.2,WNW,8.1,-,N/A,,Mostly Cloudy,290,2013-03-17 08:00:00
6:30 PM,80.6,71.6,74,29.77,6.2,WNW,6.9,-,N/A,,Mostly Cloudy,290,2013-03-17 08:30:00
7:00 PM,80,71,68,29.79,,West,6.9,,,,,280,2013-03-17 09:00:00
7:00 PM,80.6,71.6,74,29.77,6.2,West,6.9,-,N/A,,Mostly Cloudy,280,2013-03-17 09:00:00
7:30 PM,78.8,71.6,78,29.80,6.2,West,5.8,-,N/A,,Mostly Cloudy,280,2013-03-17 09:30:00
8:00 PM,77.0,71.6,83,29.80,6.2,WNW,5.8,-,N/A,,Scattered Clouds,290,2013-03-17 10:00:00
8:30 PM,77.0,71.6,83,29.83,6.2,Calm,Calm,-,N/A,,Mostly Cloudy,0,2013-03-17 10:30:00
9:00 PM,76,71,81,29.84,19,Calm,Calm,,,,Partly Cloudy,,2013-03-17 11:00:00
9:00 PM,75.2,71.6,89,29.83,6.2,Calm,Calm,-,N/A,,Mostly Cloudy,0,2013-03-17 11:00:00
9:30 PM,75.2,73.4,94,29.83,6.2,Calm,Calm,-,N/A,,Mostly Cloudy,0,2013-03-17 11:30:00
10:00 PM,76,72,83,29.85,,Calm,Calm,,,,,,2013-03-17 12:00:00
10:00 PM,75.2,71.6,89,29.83,-9999.0,Calm,Calm,-,N/A,,Clear,0,2013-03-17 12:00:00
10:30 PM,75.2,71.6,89,29.83,-9999.0,SSE,4.6,-,N/A,,Clear,150,2013-03-17 12:30:00
11:00 PM,75.2,71.6,89,29.83,-9999.0,West,1.2,-,N/A,,Clear,270,2013-03-17 13:00:00
11:30 PM,73.4,71.6,94,29.83,-9999.0,NNE,2.3,-,N/A,,Clear,30,2013-03-17 13:30:00